Location: Miss�
(46.9484°N, 0.1922°W)
Time: 00:06:59
(UTC+00:00)

Cosmos 192 - Pass Details

Date: 02 March 2021
Orbit: 700 x 714 km, 74.0° (Epoch: 20 April)

Event Time Altitude Azimuth Distance (km) Brightness Sun altitude
Rises 20:09:20 0° 200° (SSW) 3,073 7.7 -24.7°
Reaches altitude 10° 20:11:38 10° 200° (SSW) 2,160 6.8 -25.0°
Enters shadow 20:15:50 67° 201° (SSW) 763 4.4 -25.7°
Exits shadow 20:22:42 - 22° (NNE) 2,677 7.3 -26.8°
Sets 20:23:47 0° 23° (NNE) 3,107 7.6 -27.0°
